星链-34501 (STARLINK-34501)

导读

STARLINK-34501是美国太空探索技术公司(SpaceX)星链计划中的一颗卫星,于2025年6月17日发射。星链计划旨在构建全球卫星互联网星座,为全球提供高速低延迟互联网服务,该卫星的入轨进一步扩充了星链星座的规模,提升星座的覆盖能力与服务稳定性。

Basic Information
目录编号:
64429
目录名称:
STARLINK-34501
国际标识:
2025-129T
轨道中心:
EARTH
卫星名称:
星链-34501
卫星全名:
星链-34501 (STARLINK-34501)
卫星状态:
在轨 (已飞行444 天)
发射日期:
2025-06-17 UTC
国别 :
美国 (US)
星等 :
--
Orbit Information
数据来源 国际轨道数据
星历时间: 2026-09-04T06:00:02+0800
8小时前
查看轨道信息
半长轴: 6867.923km
偏心率: 0.000517
轨道倾角: 70.002°
近地点辐角 266.488°
升交点赤经 344.825°
平近点角 359.382°
近地点: 486.235km
远地点: 493.337km
周期: 94.406分钟
每日圈数: 15.253332
Detailed Information
固有亮度:
5
最大亮度:
2.5
卫星平台:
Starlink V1.0
覆盖范围:
全球
运营商:
太空探索技术公司
运营商所在国:
美国
制造商(研发单位):
太空探索技术公司
制造商所在国:
美国
使用方式:
暂无
Satellite Introduction
Starlink 计划是 SpaceX 推出的全球卫星互联网项目,通过发射低轨道卫星,为全球尤其是偏远地区提供高速、低延迟的互联网服务。自 2019 年起,Starlink 已部署数千颗卫星,旨在缩小全球数字鸿沟,推动互联网普及。该项目还为军事、航空等行业提供通信支持,带来广泛经济效益。
2D Orbit Map
3D Orbit Map
Orbit Altitude Analysis Chart
Orbit Inclination Analysis Chart
Orbit Comprehensive Analysis Chart
View Comprehensive Chart
Conjunction Data List
Event ID Objects TCA Miss Dist (km) Collision Risk Probability Collision Risk Index (CRI) Action
CDM_260906-093902-360606-442921
CERISE (23606)
2026-09-06T
09:39:51+0000
1.897 km
极远距离
3.211924E-6 低风险 0.45
CDM_260903-205806-162406-442921
2026-09-03T
20:58:39+0000
2.128 km
极远距离
2.041775E-6 低风险 0.41
CDM_260904-014106-162406-442921
2026-09-04T
01:41:15+0000
2.555 km
极远距离
1.420723E-6 低风险 0.38
CDM_260829-231606-442906-580321
2026-08-29T
23:16:40+0000
2.713 km
极远距离
1.353295E-6 低风险 0.38
CDM_260903-200005-985406-442921
2026-09-03T
20:00:16+0000
2.183 km
极远距离
9.988364E-7 极低风险 0.35
CDM_260904-223506-442906-602821
2026-09-04T
22:35:43+0000
2.635 km
极远距离
5.868809E-7 极低风险 0.3